Overview Statistics Trail Chart Weather Telemetry Raw packets
 

This is the latest recevied weather packets stored in our database for station/object KB1RMA-4. If no packets are shown the sender has not sent any weather packets the latest 10 day(s).

<< 2 3 4 5 6 7 8 >>
Time Temp. Humidity Pressure Rain* Wind** Luminosity Snow
1788618844 20.56° C 66% 1010.5 hPa 0 mm - 315 W/m² -
1788618543 20.56° C 66% 1010.6 hPa 0 mm - 206 W/m² -
1788618242 20.56° C 67% 1010.6 hPa 0 mm - 144 W/m² -
1788617938 20.56° C 66% 1010.7 hPa 0 mm - 122 W/m² -
1788617633 21.11° C 67% 1010.4 hPa 0 mm - 196 W/m² -
1788617329 20.56° C 66% 1010.4 hPa 0 mm - 235 W/m² -
1788617029 21.11° C 66% 1010.5 hPa 0 mm - 351 W/m² -
1788616728 21.11° C 66% 1010.4 hPa 0 mm - 310 W/m² -
1788616424 21.11° C 67% 1010.4 hPa 0 mm - 282 W/m² -
1788616119 20.56° C 69% 1010.4 hPa 0 mm - 247 W/m² -
1788615818 20.56° C 70% 1010.4 hPa 0 mm - 246 W/m² -
1788615512 20.56° C 69% 1010.3 hPa 0 mm - 176 W/m² -
1788615208 20° C 70% 1010.2 hPa 0 mm - 203 W/m² -
1788614907 20° C 71% 1010.1 hPa 0 mm - 169 W/m² -
1788614603 20° C 70% 1010 hPa 0 mm - 182 W/m² -
1788614296 20° C 71% 1010 hPa 0 mm - 220 W/m² -
1788613992 20° C 70% 1010 hPa 0 mm - 194 W/m² -
1788613687 20° C 71% 1009.8 hPa 0 mm - 187 W/m² -
1788613386 20° C 72% 1009.8 hPa 0 mm - 179 W/m² -
1788613081 20° C 72% 1009.8 hPa 0 mm - 178 W/m² -
1788612776 19.44° C 72% 1009.8 hPa 0 mm - 170 W/m² -
1788612473 19.44° C 73% 1009.9 hPa 0 mm - 167 W/m² -
1788612168 19.44° C 74% 1009.9 hPa 0 mm - 157 W/m² -
1788611863 18.89° C 76% 1009.8 hPa 0 mm - 149 W/m² -
1788611561 18.89° C 76% 1009.6 hPa 0 mm - 147 W/m² -

* Rain latest hour (hover to see other rain measurements)
** Current wind speed in m/s (hover to see current wind gust speed)